• In Uzbekistan
  • List of Countries
  • For 7 days
  • Water Temperature
  • Satellite Maps
  • Weather Map
  • Weather Widgets
  • user-avatar
    Login

    Hourly Weather Wlora

    Today, 27 April, Thursday

    Time Temperature Precipitation Wind Pressure Humidity
    00:00 +14°C° 0 mm 5 mps 763 mmHg 68%
    01:00 +14°C° 0 mm 5 mps 762 mmHg 69%
    02:00 +13°C° 0 mm 5 mps 762 mmHg 69%
    03:00 +13°C° 0 mm 5 mps 762 mmHg 68%
    04:00 +13°C° 0 mm 5 mps 762 mmHg 67%
    05:00 +15°C° 0 mm 5 mps 762 mmHg 62%
    06:00 +17°C° 0 mm 4 mps 762 mmHg 58%
    07:00 +19°C° 0 mm 5 mps 762 mmHg 51%
    08:00 +21°C° 0 mm 5 mps 762 mmHg 46%
    09:00 +22°C° 0 mm 5 mps 762 mmHg 41%
    10:00 +25°C° 0 mm 5 mps 762 mmHg 36%
    11:00 +25°C° 0 mm 5 mps 762 mmHg 36%
    12:00 +24°C° 0 mm 6 mps 762 mmHg 36%
    13:00 +26°C° 0 mm 6 mps 762 mmHg 36%
    14:00 +24°C° 0 mm 6 mps 762 mmHg 38%
    15:00 +24°C° 0 mm 6 mps 762 mmHg 39%
    16:00 +23°C° 0 mm 6 mps 762 mmHg 41%
    17:00 +21°C° 0 mm 5 mps 762 mmHg 48%
    18:00 +19°C° 0 mm 5 mps 761 mmHg 55%
    19:00 +16°C° 0 mm 5 mps 761 mmHg 63%
    20:00 +16°C° 0 mm 5 mps 762 mmHg 61%
    21:00 +15°C° 0 mm 5 mps 762 mmHg 60%
    22:00 +15°C° 0 mm 5 mps 762 mmHg 59%
    23:00 +15°C° 0 mm 6 mps 762 mmHg 58%

    Tomorrow, 28 April, Friday

    Time Temperature Precipitation Wind Pressure Humidity
    00:00 +15°C° 0 mm 6 mps 762 mmHg 58%
    01:00 +15°C° 0 mm 6 mps 762 mmHg 57%
    02:00 +15°C° 0 mm 6 mps 761 mmHg 56%
    03:00 +14°C° 0 mm 6 mps 761 mmHg 55%
    04:00 +14°C° 0 mm 6 mps 761 mmHg 54%
    05:00 +16°C° 0 mm 6 mps 761 mmHg 50%
    06:00 +17°C° 0 mm 6 mps 761 mmHg 46%
    07:00 +20°C° 0 mm 6 mps 761 mmHg 41%
    08:00 +22°C° 0 mm 7 mps 761 mmHg 37%
    09:00 +23°C° 0 mm 7 mps 761 mmHg 33%
    10:00 +26°C° 0 mm 7 mps 761 mmHg 29%
    11:00 +26°C° 0 mm 8 mps 761 mmHg 29%
    12:00 +26°C° 0 mm 8 mps 761 mmHg 30%
    13:00 +27°C° 0 mm 8 mps 760 mmHg 31%
    14:00 +26°C° 0 mm 8 mps 760 mmHg 33%
    15:00 +24°C° 0 mm 8 mps 760 mmHg 36%
    16:00 +23°C° 0 mm 8 mps 760 mmHg 39%
    17:00 +22°C° 0 mm 7 mps 760 mmHg 42%
    18:00 +20°C° 0 mm 7 mps 760 mmHg 46%
    19:00 +18°C° 0 mm 7 mps 760 mmHg 50%
    20:00 +18°C° 0 mm 7 mps 760 mmHg 50%
    21:00 +17°C° 0 mm 7 mps 760 mmHg 49%
    22:00 +17°C° 0 mm 7 mps 760 mmHg 49%
    23:00 +17°C° 0 mm 7 mps 760 mmHg 49%

    Day after tomorrow, 29 April, Saturday

    Time Temperature Precipitation Wind Pressure Humidity
    00:00 +17°C° 0 mm 7 mps 760 mmHg 49%
    01:00 +17°C° 0 mm 7 mps 759 mmHg 49%
    02:00 +17°C° 0 mm 6 mps 759 mmHg 49%
    03:00 +17°C° 0 mm 6 mps 759 mmHg 48%
    04:00 +17°C° 0 mm 6 mps 759 mmHg 47%
    05:00 +19°C° 0 mm 6 mps 759 mmHg 46%
    06:00 +20°C° 0 mm 6 mps 758 mmHg 45%
    07:00 +21°C° 0 mm 6 mps 758 mmHg 45%
    08:00 +22°C° 0.1 mm 6 mps 758 mmHg 41%
    09:00 +23°C° 0.1 mm 5 mps 758 mmHg 38%
    10:00 +25°C° 0.1 mm 5 mps 758 mmHg 35%
    11:00 +25°C° 0.1 mm 5 mps 758 mmHg 38%
    12:00 +25°C° 0.1 mm 5 mps 758 mmHg 40%
    13:00 +23°C° 0.1 mm 5 mps 758 mmHg 43%
    14:00 +22°C° 0.1 mm 5 mps 758 mmHg 50%
    15:00 +21°C° 0.1 mm 6 mps 758 mmHg 57%
    16:00 +19°C° 0.1 mm 6 mps 758 mmHg 64%
    17:00 +17°C° 0.1 mm 6 mps 758 mmHg 72%
    18:00 +16°C° 0.1 mm 6 mps 758 mmHg 79%
    19:00 +15°C° 0.1 mm 6 mps 758 mmHg 87%
    20:00 +15°C° 0 mm 6 mps 759 mmHg 87%
    21:00 +14°C° 0 mm 6 mps 759 mmHg 88%
    22:00 +14°C° 0 mm 6 mps 759 mmHg 88%
    23:00 +14°C° 0 mm 6 mps 759 mmHg 89%

    30 April, Sunday

    Time Temperature Precipitation Wind Pressure Humidity
    00:00 +13°C° 0 mm 6 mps 759 mmHg 89%
    01:00 +13°C° 0 mm 6 mps 759 mmHg 90%
    02:00 +12°C° 0 mm 7 mps 759 mmHg 89%
    03:00 +12°C° 0 mm 7 mps 758 mmHg 89%
    04:00 +12°C° 0 mm 7 mps 758 mmHg 88%
    05:00 +14°C° 0 mm 7 mps 759 mmHg 83%
    06:00 +15°C° 0 mm 7 mps 759 mmHg 78%
    07:00 +16°C° 0 mm 7 mps 759 mmHg 73%
    08:00 +18°C° 0 mm 7 mps 759 mmHg 65%
    09:00 +20°C° 0 mm 7 mps 759 mmHg 56%
    10:00 +22°C° 0 mm 7 mps 759 mmHg 47%
    11:00 +23°C° 0 mm 7 mps 758 mmHg 47%
    12:00 +23°C° 0 mm 7 mps 758 mmHg 47%
    13:00 +23°C° 0 mm 8 mps 757 mmHg 46%
    14:00 +23°C° 0 mm 8 mps 757 mmHg 49%
    15:00 +22°C° 0 mm 8 mps 757 mmHg 52%
    16:00 +22°C° 0 mm 8 mps 757 mmHg 55%
    17:00 +20°C° 0 mm 7 mps 757 mmHg 63%
    18:00 +17°C° 0 mm 7 mps 757 mmHg 71%
    19:00 +15°C° 0 mm 6 mps 758 mmHg 78%
    20:00 +15°C° 0 mm 6 mps 758 mmHg 80%
    21:00 +14°C° 0 mm 6 mps 758 mmHg 82%
    22:00 +14°C° 0 mm 6 mps 758 mmHg 84%
    23:00 +14°C° 0 mm 5 mps 758 mmHg 83%

    1 May, Monday

    Time Temperature Precipitation Wind Pressure Humidity
    00:00 +14°C° 0 mm 5 mps 758 mmHg 83%
    01:00 +14°C° 0 mm 5 mps 758 mmHg 82%
    02:00 +14°C° 0 mm 5 mps 758 mmHg 83%
    03:00 +14°C° 0 mm 5 mps 758 mmHg 85%
    04:00 +14°C° 0 mm 5 mps 758 mmHg 86%
    05:00 +15°C° 0 mm 5 mps 758 mmHg 80%
    06:00 +17°C° 0 mm 5 mps 758 mmHg 73%
    07:00 +20°C° 0 mm 5 mps 758 mmHg 67%
    08:00 +21°C° 0 mm 5 mps 759 mmHg 62%
    09:00 +23°C° 0 mm 5 mps 759 mmHg 57%
    10:00 +25°C° 0 mm 5 mps 759 mmHg 52%
    11:00 +25°C° 0.2 mm 5 mps 759 mmHg 54%
    12:00 +25°C° 0.2 mm 5 mps 759 mmHg 56%
    13:00 +23°C° 0.2 mm 5 mps 758 mmHg 58%
    14:00 +23°C° 0.1 mm 4 mps 758 mmHg 58%
    15:00 +23°C° 0.1 mm 4 mps 758 mmHg 59%
    16:00 +23°C° 0.1 mm 4 mps 758 mmHg 59%
    17:00 +21°C° 0 mm 3 mps 758 mmHg 67%
    18:00 +19°C° 0 mm 3 mps 758 mmHg 74%
    19:00 +17°C° 0 mm 2 mps 759 mmHg 82%
    20:00 +17°C° 0 mm 2 mps 759 mmHg 83%
    21:00 +16°C° 0 mm 2 mps 759 mmHg 85%
    22:00 +16°C° 0 mm 1 mps 759 mmHg 86%
    23:00 +15°C° 0 mm 1 mps 759 mmHg 86%

    2 May, Tuesday

    Time Temperature Precipitation Wind Pressure Humidity
    00:00 +15°C° 0 mm 1 mps 759 mmHg 86%
    01:00 +15°C° 0 mm 2 mps 759 mmHg 86%
    02:00 +15°C° 0 mm 1 mps 759 mmHg 85%
    03:00 +14°C° 0 mm 1 mps 759 mmHg 85%
    04:00 +14°C° 0 mm 1 mps 759 mmHg 84%
    05:00 +15°C° 0 mm 0 mps 759 mmHg 79%
    06:00 +17°C° 0 mm 0 mps 759 mmHg 73%
    07:00 +19°C° 0 mm 0 mps 759 mmHg 68%
    08:00 +22°C° 0 mm 1 mps 759 mmHg 61%
    09:00 +24°C° 0 mm 1 mps 759 mmHg 55%
    10:00 +25°C° 0 mm 1 mps 759 mmHg 49%
    11:00 +25°C° 0 mm 2 mps 759 mmHg 47%
    12:00 +25°C° 0 mm 3 mps 759 mmHg 46%
    13:00 +25°C° 0 mm 3 mps 759 mmHg 44%
    14:00 +25°C° 0 mm 3 mps 759 mmHg 45%
    15:00 +24°C° 0 mm 3 mps 759 mmHg 46%
    16:00 +24°C° 0 mm 2 mps 759 mmHg 47%
    17:00 +21°C° 0 mm 2 mps 759 mmHg 53%
    18:00 +19°C° 0 mm 2 mps 759 mmHg 59%
    19:00 +18°C° 0 mm 1 mps 759 mmHg 66%
    20:00 +16°C° 0 mm 1 mps 760 mmHg 67%
    21:00 +15°C° 0 mm 1 mps 760 mmHg 69%
    22:00 +15°C° 0 mm 1 mps 760 mmHg 71%
    23:00 +15°C° 0 mm 1 mps 760 mmHg 73%
    Show more